Weather Roundup
Issued by NWS Chicago, IL

Home | Current Version | Previous Version | Graphics & Text | Print | Product List | Glossary On
Versions: 1 2 3 4 5 6 7 8 9 10 11 12 13 14 15 16 17 18 19 20 21 22 23 24 25 26 27 28 29 30 31 32 33 34 35 36 37 38 39 40 41 42 43 44 45 46 47 48 49 50
000
NZUS59 KLOT 160608
HRRLOT

CHICAGO AREA WEATHER ROUNDUP
NATIONAL WEATHER SERVICE CHICAGO/ROMEOVILLE IL
1200 AM CST MON JAN 16 2017

NOTE: "FAIR" INDICATES FEW OR NO CLOUDS BELOW 12,000 FEET WITH NO
SIGNIFICANT WEATHER AND/OR OBSTRUCTIONS TO VISIBILITY.

* THESE STATIONS ARE NOT UNDER NWS QUALITY CONTROL. THEY ALSO MAY NOT
  REPORT WEATHER SUCH AS PRECIPITATION OR FOG.

ILZ005-006-012>014-019>023-160700-
NORTHEAST ILLINOIS

CITY           SKY/WX    TMP DP  RH WIND       PRES   REMARKS
OHARE          CLOUDY    30  24  78 SE5       30.29S WCI  25
6HR MIN TEMP:  28; 6HR MAX TEMP:  32;

MIDWAY         CLOUDY    33  26  75 SE5       30.30F WCI  29
6HR MIN TEMP:  32; 6HR MAX TEMP:  34;

AURORA         CLOUDY    31  25  78 E5        30.29F HAZE    WCI  26
6HR MIN TEMP:  30; 6HR MAX TEMP:  32;

LANSING*       PTCLDY    31  29  92 CALM      30.31S
JOLIET*        CLOUDY    33  30  87 CALM      30.30F
WAUKEGAN       PTCLDY    25  22  88 CALM      30.29F FOG
6HR MIN TEMP:  22; 6HR MAX TEMP:  26;

DUPAGE AIRPORT CLOUDY    31  24  75 SE3       30.28F
6HR MIN TEMP:  28; 6HR MAX TEMP:  31;

WHEELING       CLOUDY    28  22  78 CALM      30.31F
6HR MIN TEMP:  26; 6HR MAX TEMP:  31;

KANKAKEE*      CLOUDY    32  28  85 CALM      30.30S
MORRIS*        CLOUDY    32  29  90 CALM      30.29S FOG
LEWIS AIRPORT* CLOUDY    31  30  96 E3        30.29F
NORTHERLY ISL    N/A     31  28  89 SE1         N/A
$$

WIZ051-052-058>065-066-070>072-160700-
SOUTHEAST WISCONSIN

CITY           SKY/WX    TMP DP  RH WIND       PRES   REMARKS
MILWAUKEE      CLOUDY    25  18  74 CALM      30.28F
6HR MIN TEMP:  23; 6HR MAX TEMP:  30;

KENOSHA*       PTCLDY    26  19  74 SW5       30.29F HAZE    WCI  20
RACINE*        PTCLDY    27  17  66 SW3       30.30F
WAUKESHA       CLOUDY    23  18  80 CALM      30.29S
WEST BEND      CLOUDY    16  14  93 CALM      30.28S
$$

INZ001>003-010>013-019-020-160700-
NORTHWEST INDIANA

CITY           SKY/WX    TMP DP  RH WIND       PRES   REMARKS
GARY*          PTCLDY    33  27  79 SE3       30.32S
6HR MIN TEMP:  31; 6HR MAX TEMP:  34;

MICHIGAN CITY* NOT AVBL
RENSSELAER*    NOT AVBL
VALPARAISO     PTCLDY    31  27  85 E7        30.31S WCI  24
$$

LMZ740>746-160700-
SOUTHERN LAKE MICHIGAN

STATION/POSITION TIME  SKY/WX   TEMP WIND        PRES    VSBY
                                AIR  DIR/SP/G
                 (UTC)          (F)  (DEG/KT/KT) (MB)    (MI)
HARRISON CRIB    0540            33  140/  7/  7   N/A
BURNHAM HARBOR   0600            31  130/  2       N/A
CALUMET HARBOR   0524            31  120/  3/  4 1025.7
BURNS HARBOR     0540            32  140/  4/  9 1026.8F
MICHIGAN CITY    0540            31  130/  5/  5   N/A
$$

ABBREVIATIONS USED IN REMARKS
   TC - TEMPERATURE IN CELSIUS
  WCI - WIND CHILL INDEX
   HX - HEAT INDEX
  VSB - VISIBILITY
$$




USA.gov is the U.S. government's official web portal to all federal, state and local government web resources and services.